Satellite-Ground Cal/Val Site Overpasses Predictions

Prediction of Satellite NPP Overpassing Cal/Val Site: Antarctic Dome C

Ground Cal/Val Site Location: Latitude: -75.10, Longitude: 123.35; Satellite-Ground Site NADIR distance within 100 km.

Table of predicted overpasses for the next 14.0 days since TLE Epoch: 9/23/2023
Interval Starting Time Ending Time Minimum Distance Time Minimum Distance (km)
1 09/24/2023 07:32:21 09/24/2023 07:32:51 09/24/2023 07:32:36 2.00
2 09/27/2023 14:55:44 09/27/2023 14:56:13 09/27/2023 14:55:58 18.92
3 09/28/2023 14:37:02 09/28/2023 14:37:15 09/28/2023 14:37:08 88.19
4 09/29/2023 07:38:33 09/29/2023 07:39:00 09/29/2023 07:38:46 37.68
5 09/30/2023 07:19:45 09/30/2023 07:20:05 09/30/2023 07:19:55 72.52
6 10/02/2023 15:01:56 10/02/2023 15:02:20 10/02/2023 15:02:08 55.55
7 10/03/2023 14:43:06 10/03/2023 14:43:30 10/03/2023 14:43:18 53.67
8 10/04/2023 07:44:45 10/04/2023 07:45:05 10/04/2023 07:44:55 72.46
